SCP
0 0 0 0 0 0 0 0 0 0 0 0 0 0 0 0 0 0 0 0 0 0 0 0 0 0 0 0 0 0 0 0 0 0 0 0 0 0 0 0 0 0 0
0 0 0 0 0 0 0 0 0 0 0 0 0 0 0 0 0 0 0 0 0 0 0 0 0 0 0 0 0 0 0 0 0 0 0 0 0 0 0 0 0 0 0
0 0 0 0 0 0 1 0 0 0 0 0 0 0 0 0 0 0 0 0 0 0 0 0 0 0 0 0 0 0 0 0 0 0 0 0 0 0 0 0 0 0 0
0 0 0 0 0 0 0 1 0 0 0 0 0 0 0 0 0 0 0 0 0 0 0 0 0 0 0 0 0 0 0 0 0 0 0 0 0 0 0 0 0 0 0
0 0 0 0 0 0 0 1 0 0 0 0 0 0 0 0 0 0 0 0 0 0 0 0 0 0 0 0 0 0 0 0 0 0 0 0 0 0 0 0 0 0 0
0 0 0 0 0 0 1 0 -0 0 0 0 0 0 0 0 0 0 0 0 0 0 0 0 0 0 0 0 0 0 0 0 0 0 0 0 0 0 0 0 0 0 0
0 0 0 0 0 0 1 0 0 0 0 0 0 0 0 0 0 0 0 0 0 0 0 0 0 0 0 0 0 0 0 0 0 0 0 0 0 0 0 0 0 0 0
0 0 0 0 0 0 0 0 0 0 0 0 0 0 -0 0 0 0 0 0 0 0 0 0 0 0 0 0 0 0 0 0 0 0 0 0 0 0 0 0 0 0 0
0 0 0 0 0 0 0 0 0 0 0 0 0 0 -0 -0 0 0 0 0 0 0 0 0 0 0 0 0 0 0 0 0 0 0 0 0 0 0 0 0 0 0 0
0 0 0 0 0 0 0 0 0 0 0 0 0 0 0 -0 0 0 0 0 0 0 0 0 0 0 0 0 0 0 0 0 0 0 0 0 0 0 0 0 0 0 0
0 0 0 0 0 0 0 0 0 0 0 0 0 0 0 0 -0 -0 0 0 0 0 0 0 0 0 0 0 0 0 0 0 0 0 0 0 0 0 0 0 0 0 0
0 0 0 0 0 0 0 0 0 0 0 0 0 0 0 -0 -0 -0 0 0 0 0 0 0 0 0 0 0 0 0 0 0 0 0 0 0 0 0 0 0 0 0 0
0 0 0 0 0 0 0 0 0 0 0 0 0 0 0 -0 -0 -0 0 0 0 -0 0 0 0 0 0 0 0 0 0 0 0 0 0 0 0 0 0 0 0 0 0
0 0 0 0 0 0 0 0 0 0 0 0 0 0 0 0 0 0 0 0 0 0 0 0 0 0 0 0 0 0 0 0 0 0 0 0 0 0 0 0 0 0 0
0 0 0 0 0 0 0 0 0 0 0 -0 0 0 0 -0 0 0 0 0 0 0 0 0 0 0 0 0 0 0 0 0 0 0 0 0 0 0 0 0 0 0 0
0 0 0 0 0 0 0 0 0 0 0 0 0 0 0 0 0 0 0 0 0 0 0 0 0 0 0 0 0 0 0 0 0 0 0 0 0 0 0 0 0 0 0
0 0 0 0 0 0 0 -0 -0 0 0 0 0 0 0 0 0 0 0 0 0 0 0 0 0 0 0 0 0 0 0 0 0 0 0 0 0 0 0 0 0 0 0
0 0 0 0 0 -0 -0 -0 0 0 0 0 0 0 0 0 0 0 0 0 0 0 0 0 0 0 0 0 0 0 0 0 0 0 0 0 0 0 0 0 0 0 0
0 0 0 0 0 -0 -0 -0 -0 -0 0 0 0 0 0 0 0 0 0 0 0 0 0 0 0 0 0 0 0 0 0 0 0 0 0 0 0 0 0 0 0 0 0
0 -0 -0 0 -0 -0 -0 -0 -0 -0 -0 0 0 0 0 0 0 0 0 -0 -0 -0 -0 0 0 0 0 0 0 0 -0 0 0 -0 0 0 0 0 0 0 0 0 0
0 0 0 -0 -0 -0 -0 -0 -0 -0 0 -0 -0 0 0 0 0 -0 -0 -0 -0 -0 0 -0 -0 0 0 0 0 0 0 0 0 0 0 0 -0 0 0 0 0 0 0
0 -0 -0 -0 -0 -0 -0 -0 -0 0 -0 -0 0 0 0 -0 -0 0 0 0 0 0 0 0 0 -0 -0 0 0 0 0 0 0 -0 0 0 0 0 0 0 0 0 0
0 0 0 -0 -0 -0 -0 -0 -0 -0 0 0 0 0 0 0 0 0 0 0 0 0 0 0 0 0 0 -0 0 0 0 0 0 0 0 0 0 0 0 0 0 0 0
-0 -0 0 0 0 0 0 -0 -0 -0 0 -0 0 0 0 0 0 0 0 0 0 0 -0 -0 -0 -0 -0 -0 -0 0 0 0 0 0 0 0 0 0 0 0 0 0 0
-0 -0 0 0 -0 -0 -0 -0 -0 -0 0 0 -0 0 0 0 0 0 -0 -0 -0 -0 -0 -0 -0 -0 -0 -0 0 0 0 0 0 0 0 0 0 0 0 0 0 0 0
0 0 0 0 0 0 0 0 0 -0 0 0 0 -0 -0 -0 -0 -0 -0 -0 -0 0 0 0 -0 -0 0 0 0 0 0 0 0 0 0 0 0 0 0 0 0 0 0
Wind_Speed_500mb
54 46 49 41 39 32 42 32 24 40 57 71 66 94 101 81 82 78 70 64 59 55 59 62 63 63 62 59 57 54 53 51 47 44 49 46 47 51 56 56 58 59 59
58 47 48 43 35 26 34 23 21 30 43 50 66 89 88 89 92 79 74 65 61 55 58 63 65 64 63 60 59 60 59 58 57 57 53 48 53 63 61 57 54 53 56
58 55 46 43 32 20 29 19 17 32 42 40 39 54 72 85 86 89 83 72 62 55 56 61 63 61 62 62 57 61 65 64 60 66 58 25 37 42 41 34 36 44 46
47 56 57 41 27 17 23 17 20 25 38 41 56 73 77 78 83 86 79 71 64 60 57 57 58 61 62 62 59 59 65 67 71 71 74 74 74 59 55 55 44 45 50
29 40 43 42 23 17 15 23 13 8 26 45 51 75 79 72 74 75 73 74 68 64 61 61 58 56 64 64 62 71 72 72 77 81 78 82 82 80 81 62 59 58 50
25 21 24 27 24 13 18 26 12 2 16 28 19 77 60 69 70 71 73 73 70 66 68 61 59 57 59 62 62 67 71 75 74 79 92 89 63 63 68 78 79 72 70
22 7 11 22 16 9 17 34 22 20 20 31 18 12 7 45 65 62 64 69 70 68 63 59 60 59 62 67 68 70 72 79 71 82 84 82 73 68 65 45 43 45 53
19 13 2 6 5 9 22 36 31 41 36 28 32 11 10 27 32 46 65 56 59 57 56 55 54 54 56 49 44 41 44 47 47 53 54 51 49 48 43 38 39 37 35
42 42 33 26 20 22 41 40 25 30 37 36 34 28 19 7 26 20 35 28 28 23 20 22 16 16 18 14 13 17 15 17 16 16 15 16 16 15 15 13 15 15 11
51 57 52 50 46 46 60 59 44 46 47 51 61 64 61 47 44 46 47 41 36 33 12 8 4 12 13 7 8 10 15 10 16 16 14 16 17 16 15 19 17 19 18
59 64 61 60 63 69 76 76 70 72 73 65 66 61 55 48 45 44 47 49 46 42 33 38 36 39 37 37 33 34 31 27 26 24 24 25 26 25 23 24 24 24 25
62 71 73 73 76 78 83 88 83 77 75 73 71 78 59 64 69 72 68 59 60 57 57 54 56 56 57 53 50 46 41 39 36 33 27 29 24 20 20 21 22 24 26
66 70 84 84 88 87 92 91 90 85 84 82 83 83 76 71 73 74 71 70 70 70 67 67 67 63 60 54 51 45 42 42 40 37 34 35 32 32 34 35 36 37 38
67 74 82 88 86 91 97 100 94 95 91 89 92 91 87 86 83 82 81 77 74 72 68 68 67 65 59 54 49 45 45 45 46 46 46 45 45 45 45 45 46 48 50
78 79 80 87 86 90 99 101 102 97 95 97 98 95 87 82 80 79 75 72 70 70 66 65 66 65 65 61 54 51 51 49 48 47 47 46 44 44 46 49 51 52 52
71 76 79 86 88 93 98 101 100 97 95 99 97 86 81 80 79 74 72 70 71 69 65 64 64 67 68 58 54 50 49 47 47 47 46 44 45 46 48 48 49 51 47
71 78 79 82 83 88 94 97 95 90 91 91 86 81 78 79 77 72 70 72 71 65 66 67 62 65 61 53 51 48 46 47 50 52 54 54 54 54 56 56 51 52 49
76 77 78 82 84 89 89 86 84 86 88 87 82 77 74 75 72 71 71 70 65 65 63 61 59 56 54 49 47 45 48 51 53 56 60 62 61 59 61 66 65 64 60
63 70 74 79 82 86 85 85 85 84 84 82 79 74 70 72 69 70 69 66 60 61 59 57 55 52 52 48 46 48 52 58 61 61 63 66 66 60 56 63 68 68 63
62 70 74 74 75 77 75 80 82 81 84 78 76 71 68 69 67 64 61 58 58 61 59 60 58 54 53 52 55 58 63 67 72 69 69 68 64 63 59 60 66 66 61
60 63 68 74 74 69 71 81 80 83 76 71 69 66 63 62 61 59 60 59 60 58 58 56 56 55 55 58 60 61 66 66 69 68 70 73 71 67 62 53 59 52 61
56 60 64 68 67 67 66 75 79 70 64 63 62 61 60 58 56 56 57 56 54 55 54 54 56 59 58 54 54 57 57 58 79 74 76 76 70 67 64 62 56 54 64
55 57 62 63 63 63 63 69 67 57 55 55 57 56 52 52 52 51 51 52 55 56 54 52 50 50 52 59 66 68 66 71 74 71 71 71 72 70 68 64 60 59 61
49 52 53 58 61 57 58 61 55 49 46 51 53 52 51 51 51 51 51 49 49 51 53 54 57 59 63 69 66 68 68 71 74 75 75 74 75 76 75 74 69 65 61
44 44 48 53 55 52 53 51 45 40 43 49 51 50 49 48 47 47 48 49 49 49 51 54 57 59 60 56 51 56 70 75 74 80 82 84 81 78 74 69 63 60 60
39 39 41 43 46 44 46 46 41 35 35 43 47 48 46 45 43 41 40 42 44 45 50 57 62 59 50 60 66 69 74 76 81 82 83 80 75 69 65 64 63 59 58
Wind_Direction_500mb
271 264 266 262 271 279 226 233 269 229 221 219 223 210 205 208 216 215 218 218 217 214 212 211 210 212 217 220 224 230 233 236 236 240 251 258 266 267 268 271 273 272 272
269 262 258 264 270 281 231 225 261 220 222 211 208 222 212 207 218 218 219 219 219 216 215 216 215 216 219 221 226 228 236 239 238 240 246 257 266 267 273 273 278 276 274
273 265 249 258 271 269 220 223 278 228 205 209 235 225 211 205 215 220 220 219 218 218 219 222 221 220 224 227 232 234 234 240 246 247 241 252 254 272 274 271 278 281 282
265 268 259 248 255 259 223 198 258 221 208 205 212 204 217 214 218 220 221 219 219 220 221 225 227 226 228 234 239 241 242 244 248 248 252 254 260 265 276 274 270 277 276
304 260 261 251 234 253 224 182 207 124 214 213 239 224 217 222 219 227 226 224 223 224 226 228 229 231 230 236 241 253 242 246 254 250 255 255 258 257 259 265 267 271 270
289 254 253 244 237 245 211 166 150 155 191 187 233 205 208 223 221 225 229 229 228 225 228 231 234 238 242 242 249 251 256 256 257 262 258 254 253 259 262 263 261 268 273
281 234 212 201 222 195 185 158 173 98 76 89 105 250 195 221 226 231 233 232 229 228 228 230 234 239 243 244 251 256 258 256 251 256 259 258 260 263 261 266 268 273 282
326 348 109 201 202 152 149 142 128 99 114 116 108 111 75 325 248 240 227 226 224 220 220 223 230 235 237 242 253 268 273 278 275 271 271 271 276 279 280 280 281 287 287
77 85 91 94 106 112 133 142 136 115 96 98 103 73 52 353 142 180 165 172 158 173 173 193 226 240 234 237 276 263 268 267 260 249 255 266 276 295 323 316 328 315 316
66 76 86 90 102 117 128 136 126 113 109 105 94 82 73 59 80 103 105 115 106 108 119 95 110 120 102 72 104 102 82 83 85 76 67 62 52 28 1 352 345 336 325
62 77 91 98 106 112 112 114 110 110 105 101 98 90 77 85 87 79 83 84 84 81 89 86 87 77 72 68 64 66 68 68 68 61 49 46 35 25 16 6 356 348 339
59 72 82 93 101 106 106 107 108 105 101 100 99 96 94 93 91 92 89 86 85 85 83 85 82 80 79 77 75 75 76 75 72 68 61 56 46 32 22 10 358 347 336
55 64 76 79 84 95 101 105 105 105 103 100 95 92 91 88 89 90 90 90 89 89 89 87 85 82 79 78 77 77 76 73 68 60 52 48 40 33 27 19 10 2 353
51 59 66 76 81 89 94 98 98 97 98 97 94 93 93 93 92 91 91 91 92 91 88 87 87 84 81 77 75 71 67 63 59 54 49 43 36 28 20 11 3 354 346
48 58 64 82 80 86 95 98 100 99 99 96 93 91 92 93 92 90 90 90 88 88 88 89 87 84 78 71 66 63 60 58 55 50 43 36 26 18 9 359 352 345 339
46 63 71 84 85 92 96 98 98 98 97 94 93 95 94 92 89 89 89 89 88 87 84 79 77 75 71 66 63 59 56 50 45 39 31 21 11 2 356 352 347 341 340
49 70 76 85 90 92 96 98 99 99 96 94 94 93 92 89 88 87 85 82 79 78 79 80 78 75 71 63 56 50 45 38 31 25 17 9 3 354 351 348 343 336 332
69 75 83 88 92 95 96 97 96 94 93 92 91 90 89 89 89 85 82 80 79 76 75 74 73 72 68 58 50 43 37 30 23 16 10 3 358 355 352 343 341 337 333
80 84 87 92 96 97 98 98 95 92 90 89 89 89 88 86 83 80 78 76 74 72 68 66 65 63 61 51 41 31 26 20 15 8 4 0 356 353 350 338 338 334 332
83 89 93 93 93 92 95 94 92 92 91 92 91 89 87 83 80 78 76 75 73 72 68 63 58 51 45 36 26 19 14 10 6 4 358 355 351 347 344 339 336 330 329
86 90 91 89 91 93 94 91 89 88 90 90 88 86 83 80 79 80 77 72 68 66 62 56 49 41 33 27 20 15 6 4 359 357 353 354 352 347 344 340 338 331 319
92 91 92 92 93 92 90 89 87 88 87 84 81 80 78 76 73 70 69 67 63 58 54 48 40 32 24 15 10 7 7 4 358 357 353 350 347 344 342 337 332 326 325
97 97 97 97 95 92 89 88 88 89 88 83 78 75 73 72 72 69 65 60 53 47 41 37 31 23 16 14 10 5 2 358 353 355 351 347 344 341 341 342 340 336 335
105 104 104 101 98 94 90 88 90 87 83 79 76 73 69 65 60 56 53 50 48 40 34 30 24 17 12 13 4 360 354 354 352 353 348 343 341 344 344 346 350 351 350
113 113 107 103 100 98 96 92 87 82 78 74 71 68 64 61 56 51 48 44 40 32 26 23 18 14 16 7 1 359 355 355 351 347 343 344 345 347 349 350 353 352 351
122 119 114 111 109 109 105 98 87 76 73 76 73 69 65 61 56 51 46 43 37 29 23 19 16 15 10 4 1 358 356 353 348 346 347 351 353 355 355 355 355 356 354
Wind_Speed_850mb
54 46 49 41 39 32 42 32 24 40 57 71 66 94 101 81 82 78 70 64 59 55 59 62 63 63 62 59 57 54 53 51 47 44 49 46 47 51 56 56 58 59 59
58 47 48 43 35 26 34 23 21 30 43 50 66 89 88 89 92 79 74 65 61 55 58 63 65 64 63 60 59 60 59 58 57 57 53 48 53 63 61 57 54 53 56
58 55 46 43 32 20 29 19 17 32 42 40 39 54 72 85 86 89 83 72 62 55 56 61 63 61 62 62 57 61 65 64 60 66 58 25 37 42 41 34 36 44 46
47 56 57 41 27 17 23 17 20 25 38 41 56 73 77 78 83 86 79 71 64 60 57 57 58 61 62 62 59 59 65 67 71 71 74 74 74 59 55 55 44 45 50
29 40 43 42 23 17 15 23 13 8 26 45 51 75 79 72 74 75 73 74 68 64 61 61 58 56 64 64 62 71 72 72 77 81 78 82 82 80 81 62 59 58 50
25 21 24 27 24 13 18 26 12 2 16 28 19 77 60 69 70 71 73 73 70 66 68 61 59 57 59 62 62 67 71 75 74 79 92 89 63 63 68 78 79 72 70
22 7 11 22 16 9 17 34 22 20 20 31 18 12 7 45 65 62 64 69 70 68 63 59 60 59 62 67 68 70 72 79 71 82 84 82 73 68 65 45 43 45 53
19 13 2 6 5 9 22 36 31 41 36 28 32 11 10 27 32 46 65 56 59 57 56 55 54 54 56 49 44 41 44 47 47 53 54 51 49 48 43 38 39 37 35
42 42 33 26 20 22 41 40 25 30 37 36 34 28 19 7 26 20 35 28 28 23 20 22 16 16 18 14 13 17 15 17 16 16 15 16 16 15 15 13 15 15 11
51 57 52 50 46 46 60 59 44 46 47 51 61 64 61 47 44 46 47 41 36 33 12 8 4 12 13 7 8 10 15 10 16 16 14 16 17 16 15 19 17 19 18
59 64 61 60 63 69 76 76 70 72 73 65 66 61 55 48 45 44 47 49 46 42 33 38 36 39 37 37 33 34 31 27 26 24 24 25 26 25 23 24 24 24 25
62 71 73 73 76 78 83 88 83 77 75 73 71 78 59 64 69 72 68 59 60 57 57 54 56 56 57 53 50 46 41 39 36 33 27 29 24 20 20 21 22 24 26
66 70 84 84 88 87 92 91 90 85 84 82 83 83 76 71 73 74 71 70 70 70 67 67 67 63 60 54 51 45 42 42 40 37 34 35 32 32 34 35 36 37 38
67 74 82 88 86 91 97 100 94 95 91 89 92 91 87 86 83 82 81 77 74 72 68 68 67 65 59 54 49 45 45 45 46 46 46 45 45 45 45 45 46 48 50
78 79 80 87 86 90 99 101 102 97 95 97 98 95 87 82 80 79 75 72 70 70 66 65 66 65 65 61 54 51 51 49 48 47 47 46 44 44 46 49 51 52 52
71 76 79 86 88 93 98 101 100 97 95 99 97 86 81 80 79 74 72 70 71 69 65 64 64 67 68 58 54 50 49 47 47 47 46 44 45 46 48 48 49 51 47
71 78 79 82 83 88 94 97 95 90 91 91 86 81 78 79 77 72 70 72 71 65 66 67 62 65 61 53 51 48 46 47 50 52 54 54 54 54 56 56 51 52 49
76 77 78 82 84 89 89 86 84 86 88 87 82 77 74 75 72 71 71 70 65 65 63 61 59 56 54 49 47 45 48 51 53 56 60 62 61 59 61 66 65 64 60
63 70 74 79 82 86 85 85 85 84 84 82 79 74 70 72 69 70 69 66 60 61 59 57 55 52 52 48 46 48 52 58 61 61 63 66 66 60 56 63 68 68 63
62 70 74 74 75 77 75 80 82 81 84 78 76 71 68 69 67 64 61 58 58 61 59 60 58 54 53 52 55 58 63 67 72 69 69 68 64 63 59 60 66 66 61
60 63 68 74 74 69 71 81 80 83 76 71 69 66 63 62 61 59 60 59 60 58 58 56 56 55 55 58 60 61 66 66 69 68 70 73 71 67 62 53 59 52 61
56 60 64 68 67 67 66 75 79 70 64 63 62 61 60 58 56 56 57 56 54 55 54 54 56 59 58 54 54 57 57 58 79 74 76 76 70 67 64 62 56 54 64
55 57 62 63 63 63 63 69 67 57 55 55 57 56 52 52 52 51 51 52 55 56 54 52 50 50 52 59 66 68 66 71 74 71 71 71 72 70 68 64 60 59 61
49 52 53 58 61 57 58 61 55 49 46 51 53 52 51 51 51 51 51 49 49 51 53 54 57 59 63 69 66 68 68 71 74 75 75 74 75 76 75 74 69 65 61
44 44 48 53 55 52 53 51 45 40 43 49 51 50 49 48 47 47 48 49 49 49 51 54 57 59 60 56 51 56 70 75 74 80 82 84 81 78 74 69 63 60 60
39 39 41 43 46 44 46 46 41 35 35 43 47 48 46 45 43 41 40 42 44 45 50 57 62 59 50 60 66 69 74 76 81 82 83 80 75 69 65 64 63 59 58
Wind_Direction_850mb
271 264 266 262 271 279 226 233 269 229 221 219 223 210 205 208 216 215 218 218 217 214 212 211 210 212 217 220 224 230 233 236 236 240 251 258 266 267 268 271 273 272 272
269 262 258 264 270 281 231 225 261 220 222 211 208 222 212 207 218 218 219 219 219 216 215 216 215 216 219 221 226 228 236 239 238 240 246 257 266 267 273 273 278 276 274
273 265 249 258 271 269 220 223 278 228 205 209 235 225 211 205 215 220 220 219 218 218 219 222 221 220 224 227 232 234 234 240 246 247 241 252 254 272 274 271 278 281 282
265 268 259 248 255 259 223 198 258 221 208 205 212 204 217 214 218 220 221 219 219 220 221 225 227 226 228 234 239 241 242 244 248 248 252 254 260 265 276 274 270 277 276
304 260 261 251 234 253 224 182 207 124 214 213 239 224 217 222 219 227 226 224 223 224 226 228 229 231 230 236 241 253 242 246 254 250 255 255 258 257 259 265 267 271 270
289 254 253 244 237 245 211 166 150 155 191 187 233 205 208 223 221 225 229 229 228 225 228 231 234 238 242 242 249 251 256 256 257 262 258 254 253 259 262 263 261 268 273
281 234 212 201 222 195 185 158 173 98 76 89 105 250 195 221 226 231 233 232 229 228 228 230 234 239 243 244 251 256 258 256 251 256 259 258 260 263 261 266 268 273 282
326 348 109 201 202 152 149 142 128 99 114 116 108 111 75 325 248 240 227 226 224 220 220 223 230 235 237 242 253 268 273 278 275 271 271 271 276 279 280 280 281 287 287
77 85 91 94 106 112 133 142 136 115 96 98 103 73 52 353 142 180 165 172 158 173 173 193 226 240 234 237 276 263 268 267 260 249 255 266 276 295 323 316 328 315 316
66 76 86 90 102 117 128 136 126 113 109 105 94 82 73 59 80 103 105 115 106 108 119 95 110 120 102 72 104 102 82 83 85 76 67 62 52 28 1 352 345 336 325
62 77 91 98 106 112 112 114 110 110 105 101 98 90 77 85 87 79 83 84 84 81 89 86 87 77 72 68 64 66 68 68 68 61 49 46 35 25 16 6 356 348 339
59 72 82 93 101 106 106 107 108 105 101 100 99 96 94 93 91 92 89 86 85 85 83 85 82 80 79 77 75 75 76 75 72 68 61 56 46 32 22 10 358 347 336
55 64 76 79 84 95 101 105 105 105 103 100 95 92 91 88 89 90 90 90 89 89 89 87 85 82 79 78 77 77 76 73 68 60 52 48 40 33 27 19 10 2 353
51 59 66 76 81 89 94 98 98 97 98 97 94 93 93 93 92 91 91 91 92 91 88 87 87 84 81 77 75 71 67 63 59 54 49 43 36 28 20 11 3 354 346
48 58 64 82 80 86 95 98 100 99 99 96 93 91 92 93 92 90 90 90 88 88 88 89 87 84 78 71 66 63 60 58 55 50 43 36 26 18 9 359 352 345 339
46 63 71 84 85 92 96 98 98 98 97 94 93 95 94 92 89 89 89 89 88 87 84 79 77 75 71 66 63 59 56 50 45 39 31 21 11 2 356 352 347 341 340
49 70 76 85 90 92 96 98 99 99 96 94 94 93 92 89 88 87 85 82 79 78 79 80 78 75 71 63 56 50 45 38 31 25 17 9 3 354 351 348 343 336 332
69 75 83 88 92 95 96 97 96 94 93 92 91 90 89 89 89 85 82 80 79 76 75 74 73 72 68 58 50 43 37 30 23 16 10 3 358 355 352 343 341 337 333
80 84 87 92 96 97 98 98 95 92 90 89 89 89 88 86 83 80 78 76 74 72 68 66 65 63 61 51 41 31 26 20 15 8 4 0 356 353 350 338 338 334 332
83 89 93 93 93 92 95 94 92 92 91 92 91 89 87 83 80 78 76 75 73 72 68 63 58 51 45 36 26 19 14 10 6 4 358 355 351 347 344 339 336 330 329
86 90 91 89 91 93 94 91 89 88 90 90 88 86 83 80 79 80 77 72 68 66 62 56 49 41 33 27 20 15 6 4 359 357 353 354 352 347 344 340 338 331 319
92 91 92 92 93 92 90 89 87 88 87 84 81 80 78 76 73 70 69 67 63 58 54 48 40 32 24 15 10 7 7 4 358 357 353 350 347 344 342 337 332 326 325
97 97 97 97 95 92 89 88 88 89 88 83 78 75 73 72 72 69 65 60 53 47 41 37 31 23 16 14 10 5 2 358 353 355 351 347 344 341 341 342 340 336 335
105 104 104 101 98 94 90 88 90 87 83 79 76 73 69 65 60 56 53 50 48 40 34 30 24 17 12 13 4 360 354 354 352 353 348 343 341 344 344 346 350 351 350
113 113 107 103 100 98 96 92 87 82 78 74 71 68 64 61 56 51 48 44 40 32 26 23 18 14 16 7 1 359 355 355 351 347 343 344 345 347 349 350 353 352 351
122 119 114 111 109 109 105 98 87 76 73 76 73 69 65 61 56 51 46 43 37 29 23 19 16 15 10 4 1 358 356 353 348 346 347 351 353 355 355 355 355 356 354